Skip Page Navigation
NASA JPL Caltech
NASA Logo - Jet Propulsion Laboratory + View the NASA Portal
+ Center for Near-Earth Object Studies
JPL Home Earth Solar System Stars & Galaxies Technology
JPL Solar System Dynamics
BODIES ORBITS EPHEMERIDES TOOLS PHYSICAL DATA DISCOVERY FAQ SITE MAP
JPL Small-Body Database Browser
Search: [ help ]  
120048 (2003 BJ29)
Classification: Main-belt Asteroid          SPK-ID: 2120048
Ephemeris | Orbit Diagram | Orbital Elements | Mission Design | Physical Parameters | Discovery Circumstances ]

[ show orbit diagram ]
Orbital Elements at Epoch 2459000.5 (2020-May-31.0) TDB
Reference: JPL 18 (heliocentric ecliptic J2000)
 Element Value Uncertainty (1-sigma)   Units 
e .1598300140660961 4.4971e-08  
a 2.312769175425879 8.9272e-09 au
q 1.943119245585927 1.067e-07 au
i 1.584894995387999 3.6755e-06 deg
node 293.5425023033212 0.00020873 deg
peri 118.7403439982388 0.00020948 deg
M 30.58526679841472 1.7127e-05 deg
tp 2458891.354298880710
(2020-Feb-11.85429888)
6.0918e-05 TDB
period 1284.685618795414
3.52
7.4383e-06
2.036e-08
d
yr
n .2802242001724548 1.6225e-09 deg/d
Q 2.682419105265831 1.0354e-08 au
  Orbit Determination Parameters
   # obs. used (total)      421  
   data-arc span      7732 days (21.17 yr)  
   first obs. used      1998-09-26  
   last obs. used      2019-11-27  
   planetary ephem.      DE431  
   SB-pert. ephem.      SB431-N16  
   condition code      0  
   norm. resid. RMS      .5259  
   source      ORB  
   producer      Otto Matic  
   solution date      2019-Dec-14 09:59:16  

Additional Information
 Earth MOID = .95468 au 
 Jupiter MOID = 2.66607 au 
 T_jup = 3.566 
[ show covariance matrix ]

Ephemeris | Orbit Diagram | Orbital Elements | Mission Design | Physical Parameters | Discovery Circumstances ]

Physical Parameter Table
Parameter Symbol Value Units Sigma Reference Notes
absolute magnitude H 16.8   n/a MPO449699  
diameter diameter 2.502 km 0.611 urn:nasa:pds:neowise_diameters_albedos::2.0[mainbelt] (http://adsabs.harvard.edu/abs/2011ApJ...741...68M)  
geometric albedo albedo 0.054   0.018 urn:nasa:pds:neowise_diameters_albedos::2.0[mainbelt] (http://adsabs.harvard.edu/abs/2011ApJ...741...68M)  

120048 (2003 BJ29)          Discovered 2003-Jan-27 by LONEOS at Anderson Mesa
Reference: 20051116/Numbers.arcLast Updated: 2005-11-21

Alternate Designations
 2003 BJ29 = 1998 SX117 
Ephemeris | Orbit Diagram | Orbital Elements | Mission Design | Physical Parameters | Discovery Circumstances ]
ABOUT SSD CREDITS/AWARDS PRIVACY/COPYRIGHT GLOSSARY LINKS
FirstGov 2020-Oct-22 02:05 UT
(server date/time)  
NASA Home Page
Site Manager:   Ryan S. Park
Webmaster  Alan B. Chamberlin